Regional Weather Roundup
Issued by NWS Goodland, KS

Home | Current Version | Previous Version | Graphics & Text | Print | Product List | Glossary On
Versions: 1 2 3 4 5 6 7 8 9 10 11 12 13 14 15 16 17 18 19 20 21 22 23 24 25 26 27 28 29 30 31 32 33 34 35 36 37 38 39 40 41 42 43 44 45 46 47 48 49 50
000
ASUS43 KGLD 230208
RWRGLD

GOODLAND FORECAST AREA HOURLY WEATHER ROUNDUP
NATIONAL WEATHER SERVICE GOODLAND KS
800 PM MDT THU JUN 22 2017

...OFFICIAL OBSERVATIONS...

CITY           SKY/WX    TMP DP  RH WIND       PRES   REMARKS
GOODLAND KS    CLOUDY    78  58  49 NE16      29.85F
HILL CITY KS   PTCLDY    82  65  56 N17G26    29.76R
IMPERIAL NEB   CLOUDY    74  55  51 NE13G23   29.91R
MCCOOK NEB     PTCLDY    78  59  51 N14       29.84R
AKRON CO       PTCLDY    73  53  49 NE15      29.94S
BURLINGTON CO  CLOUDY    77  58  51 NE12      29.86F
LIMON CO       CLOUDY    74  51  44 E7        29.95F
$$

...UNOFFICIAL OBSERVATIONS...

CITY           SKY/WX    TMP DP  RH WIND       PRES   REMARKS
LENORA KS        N/A     79  32  18 MISG        N/A
NORTON KS      CLEAR     79  55  44 N8        29.82R
SHARON SPRINGS   N/A     75  62  64 N9G17       N/A
TRENTON NEB      N/A     75  32  20 N7          N/A
KIT CARSON CO    N/A     72  60  64 MISG        N/A
YUMA CO        FAIR      73  55  53 NE15G21   29.91S
$$




USA.gov is the U.S. government's official web portal to all federal, state and local government web resources and services.